Location: Altenst�hlen
(53.5567°N, 8.9425°E)
Time: 09:10:38
(UTC+00:00)

YAOGAN 1 - Pass Details

Date: 23 October 2019
Orbit: 619 x 621 km, 98.0° (Epoch: 20 November)

Event Time Altitude Azimuth Distance (km) Brightness Sun altitude
Rises 16:39:15 0° 133° (SE) 2,893 5.7 -4.9°
Reaches altitude 10° 16:41:37 10° 123° (ESE) 1,991 4.8 -5.3°
Maximum altitude 16:45:23 30° 63° (ENE) 1,128 3.4 -5.8°
Drops below altitude 10° 16:49:10 10° 2° (N) 2,002 5.1 -6.4°
Sets 16:51:33 0° 352° (N) 2,913 6.0 -6.7°
